TKSAT-1 (TUPAC KATARI)

Last updated on Sun Apr 12 2026 00:02:53 GMT+0000 (Coordinated Universal Time)

1 39481U 13075A 26101.50344398 -.00000193 00000+0 00000+0 0 9999 2 39481 0.0625 61.2134 0002717 311.4485 281.1153 1.00271998 44938
UTC large
Height (km)
Speed (km/s)
/
Latitude / Longitude
Inclination (degrees)
Orbital Period (minutes)
Azimuth
Elevation
Range (km)
Doppler Factor

Next 0 passes for location: London (51.5072 / 0.1276)

Sorry there are no passes over London.
TKSAT-1 (TUPAC KATARI)